User: anonymous   Login
Location: Vale
(35.4830°N, 81.3830°W)
Time: 16:48:31
(UTC-05:00)
Language:

Oscar 11 - Orbit

View from above orbital plane
View from above orbital plane
View from above satellite
View from above satellite

Ground track
Ground track

The orbit data is extracted from the following two-line orbital elements,

1 14781U 84021B   16038.11252715  .00000344  00000-0  49013-4 0  9990
2 14781  97.7690  94.0018 0009199  32.3341 327.8435 14.82660628716837
Epoch (UTC): 07 February 2016 02:42:02
Eccentricity: 0.0009199
inclination: 97.7690°
perigee height: 614 km
apogee height: 627 km
right ascension of ascending node: 94.0018°
argument of perigee: 32.3341°
revolutions per day: 14.82660628
mean anomaly at epoch: 327.8435°
orbit number at epoch: 71683

The dashed part of the orbit path shows where the satellite is in the earth's shadow,  

DLR